RH
2 2 1 2 2 2 2 2 3 3 4 4 4 4 4 4 4 4 3 3 3 3 3 3 3 2 3 3 3 3 3 4 4 4 4 4 4 4 4 4 4 4 4 4 4 4 5 5 5 5 5 6 6 6 6 6 7 7 8 10 13 14 17 19 19 20 19 17 13 9 9 9 10 11 11 11 11 12 11 11 12 12 12 13 13 13 13 13
2 2 2 1 2 2 2 2 3 3 4 4 5 4 5 4 4 4 3 3 3 3 3 3 3 3 3 3 4 4 4 4 4 5 5 4 5 5 5 5 5 5 5 4 5 5 5 5 5 5 5 6 6 6 6 6 7 7 8 9 10 11 14 18 19 19 17 14 11 9 10 10 11 12 12 12 12 12 11 12 12 12 13 14 14 14 14 13
2 2 2 2 2 2 2 3 3 3 4 4 5 5 5 5 4 4 3 3 3 3 3 3 3 3 3 4 4 4 4 5 4 5 6 5 5 5 5 5 5 5 5 5 5 5 5 6 5 6 5 6 6 6 7 7 7 8 8 8 8 9 12 15 15 14 12 10 10 10 11 11 12 12 12 12 11 12 12 12 12 13 14 14 14 14 14 15
6 3 3 2 1 2 2 3 3 4 4 4 5 5 5 5 4 4 3 3 3 3 3 3 3 3 4 4 4 4 4 6 7 6 6 6 5 5 5 5 5 5 5 5 6 6 6 6 6 6 6 6 6 6 7 7 8 9 9 9 9 9 10 11 11 10 10 10 11 12 12 12 12 11 11 11 11 12 12 12 13 13 15 15 15 15 15 15
19 14 10 7 5 4 3 3 4 3 4 4 5 5 5 5 4 4 3 3 3 3 3 3 3 4 4 4 4 5 4 6 7 5 6 6 5 5 5 5 6 5 6 6 6 7 7 7 7 7 7 7 7 7 8 8 9 9 9 9 10 10 10 11 11 11 11 11 12 12 11 11 11 10 11 10 10 12 12 12 13 13 15 15 15 14 14 15
31 29 25 19 14 10 7 5 4 3 3 3 4 5 5 5 5 4 4 3 3 3 3 3 4 4 4 4 5 5 5 5 5 5 5 6 5 6 6 6 6 6 7 7 8 8 8 8 8 8 8 8 8 9 9 9 10 10 10 11 10 10 11 11 11 12 12 12 12 11 10 10 9 9 10 9 11 13 12 11 12 13 14 14 13 13 14 14
32 34 34 32 28 21 14 8 4 3 3 3 3 3 4 5 5 4 4 4 3 3 3 3 4 4 5 5 5 5 5 6 6 6 5 6 6 6 7 7 7 8 8 8 9 9 9 9 9 9 9 9 9 9 10 10 10 10 11 11 10 10 11 11 11 11 12 13 12 10 10 10 10 9 9 9 11 13 12 11 12 12 13 13 14 14 14 15
32 33 34 34 34 30 24 17 10 6 3 3 3 2 3 4 5 4 4 4 4 4 4 4 4 4 5 6 5 5 6 7 6 6 6 7 7 7 8 8 8 8 9 9 9 9 9 9 9 10 10 10 10 10 10 10 10 10 10 10 10 10 10 10 11 10 11 13 11 10 10 11 10 10 10 11 12 13 12 12 12 13 13 14 15 16 16 17
32 32 33 33 32 32 30 27 21 13 8 5 3 3 3 3 4 5 4 4 4 5 5 5 5 5 6 6 5 6 6 7 6 6 7 7 8 8 8 8 9 9 9 10 10 10 10 9 10 9 10 10 9 10 9 9 10 10 9 9 9 9 9 10 10 11 11 13 12 10 11 12 11 10 12 12 12 13 13 13 14 14 14 13 14 16 18 19
33 31 32 32 32 32 30 30 29 24 17 10 6 4 3 3 3 4 5 4 4 5 5 5 6 6 5 5 5 5 6 6 7 7 7 8 8 8 8 9 10 10 10 10 10 10 9 9 9 9 9 10 10 9 9 9 10 9 9 9 8 9 10 11 12 12 13 14 12 11 12 11 11 11 12 12 12 14 15 14 15 15 15 15 15 16 17 20
44 41 38 34 31 31 30 29 29 28 24 18 13 8 5 4 3 4 5 4 5 4 4 5 5 6 5 5 5 5 6 7 7 7 8 8 8 8 9 9 10 10 10 10 10 10 10 9 9 9 9 10 9 9 9 10 9 9 9 8 8 10 13 14 14 14 14 14 13 12 12 10 11 12 12 12 13 15 16 16 16 17 17 17 17 17 18 21
53 52 50 45 38 33 31 28 27 27 26 22 19 15 9 5 3 3 4 5 5 4 4 4 5 6 5 5 5 5 6 7 7 7 8 8 9 9 9 10 10 10 10 10 10 9 9 9 9 9 9 9 9 9 10 10 9 9 9 9 10 12 14 17 17 15 14 14 14 14 14 10 10 13 12 12 14 16 17 17 18 19 19 20 21 20 21 23
52 52 53 53 48 40 33 28 27 26 24 19 18 17 12 8 4 4 4 4 5 5 5 5 5 5 5 5 5 6 6 7 7 7 8 8 8 9 9 9 9 9 9 8 8 8 7 8 8 8 8 9 8 8 9 9 9 9 9 10 13 15 16 16 15 14 14 15 15 16 16 12 10 13 13 13 15 16 17 18 19 21 21 23 25 25 26 27
47 48 50 50 44 40 33 27 26 25 22 17 14 15 13 9 5 3 4 4 5 5 5 6 6 5 5 5 5 6 6 7 7 8 8 8 7 8 8 8 7 7 7 6 7 7 7 7 7 8 8 8 8 8 9 10 10 10 11 13 15 17 16 13 13 13 14 16 16 17 18 14 11 14 14 14 16 17 18 19 21 23 24 26 29 29 28 27
45 43 42 45 39 29 22 18 18 18 18 16 14 15 14 11 6 3 3 4 6 5 5 5 5 6 5 6 6 6 7 7 8 7 7 7 7 7 7 7 7 7 7 6 7 6 7 7 7 8 8 8 8 8 9 11 11 12 13 14 13 14 14 12 12 13 15 17 17 17 18 15 13 14 14 15 17 18 19 21 24 25 26 29 32 32 28 27
47 39 29 36 37 26 16 13 13 12 11 10 10 12 12 10 6 4 3 3 6 6 5 5 5 6 5 6 8 7 7 8 8 8 8 8 7 7 7 7 7 6 7 6 6 7 7 8 8 9 9 9 9 9 11 12 12 14 15 15 14 13 13 13 13 15 17 18 18 18 18 16 15 15 15 16 18 19 19 22 26 28 29 30 33 33 29 27
41 36 26 27 30 27 22 20 18 14 12 10 8 7 8 8 6 5 4 3 5 6 6 5 5 5 5 8 9 8 9 9 9 8 8 8 7 8 7 7 7 6 7 7 7 7 8 8 9 9 9 9 9 10 14 14 14 16 16 17 18 17 15 14 14 15 18 19 19 20 19 16 16 15 15 17 19 19 20 23 28 30 31 32 34 33 30 28
31 31 30 31 31 31 28 23 20 14 13 14 10 7 7 7 6 5 6 5 5 6 6 7 5 5 10 13 11 9 10 8 9 8 8 9 8 8 8 7 7 7 7 8 8 8 9 10 9 9 9 9 10 11 15 16 16 18 20 22 22 19 16 14 14 16 18 19 20 21 19 19 18 15 15 18 19 18 21 26 30 31 32 34 34 32 31 30
31 33 33 34 34 33 28 23 20 14 14 14 9 8 7 7 7 7 8 7 6 7 7 9 8 6 10 11 8 7 8 8 8 8 8 9 8 8 8 7 8 8 8 9 9 10 10 10 9 9 9 9 10 11 14 17 20 23 25 26 23 18 15 14 16 17 18 20 21 21 22 22 19 16 18 19 18 19 22 27 30 32 34 35 34 32 32 31
28 31 32 31 30 28 23 19 16 14 18 17 10 9 9 8 8 8 9 8 7 8 7 8 8 6 6 6 6 6 7 7 8 8 8 8 8 8 8 9 9 9 9 10 10 10 9 9 8 9 9 10 11 11 14 18 22 26 26 24 20 17 16 15 16 18 19 22 23 22 25 23 18 18 19 17 17 19 22 26 30 33 35 35 34 33 32 32
15 18 20 21 22 20 16 14 11 11 18 21 15 12 10 9 8 7 8 7 7 7 7 8 7 7 7 6 7 7 7 8 8 9 8 9 10 10 9 10 9 10 10 9 9 8 8 8 7 9 11 11 11 12 14 17 21 23 21 20 18 17 16 16 18 19 21 25 25 26 26 22 20 20 19 17 19 21 24 29 32 34 35 35 34 33 33 35
7 8 10 11 14 13 12 11 9 10 14 16 15 12 11 11 10 8 8 8 8 8 7 8 8 8 8 8 9 8 9 10 10 10 10 11 11 10 10 10 9 9 9 8 8 8 8 8 9 10 10 10 12 13 14 17 19 19 19 19 18 17 17 18 21 22 25 29 28 28 26 22 20 20 20 21 22 23 29 34 35 35 35 35 36 36 36 39
6 6 7 7 9 10 10 10 10 10 10 11 11 11 11 11 10 9 10 10 9 10 10 9 9 9 9 11 11 11 12 11 11 12 12 12 10 10 10 9 9 8 7 7 7 8 8 8 8 9 10 13 14 15 16 18 18 19 19 18 18 19 21 23 23 24 27 30 30 29 27 24 24 24 25 26 25 26 32 36 36 38 37 38 39 40 43 43
7 5 6 6 7 9 10 11 11 11 11 10 10 10 9 9 9 9 9 9 12 17 17 13 12 12 13 14 13 13 12 11 13 13 11 10 9 10 9 8 8 7 7 8 8 8 8 8 9 12 14 14 15 16 17 18 18 18 18 18 20 21 24 25 25 26 26 27 28 27 28 28 27 30 30 28 28 31 35 36 38 42 41 41 41 44 47 49
7 5 6 6 8 10 10 11 11 11 11 10 9 9 8 8 8 8 8 10 15 20 19 14 14 16 16 15 13 13 11 12 14 11 9 10 9 8 8 7 8 7 8 8 8 9 9 11 13 14 15 15 16 17 17 19 20 19 19 20 22 21 23 25 26 28 28 28 27 27 37 39 30 32 34 31 33 35 38 39 41 45 45 45 46 47 49 51
10 7 7 8 10 11 11 11 11 11 11 9 9 7 6 6 6 7 9 14 19 19 16 14 16 18 17 14 13 12 11 11 11 8 9 10 8 8 8 8 8 8 8 8 10 11 12 14 14 15 17 16 17 17 19 21 21 21 22 22 22 22 24 26 27 30 30 30 28 28 42 44 32 33 38 36 35 37 42 46 45 48 50 50 51 50 51 53
14 7 8 10 10 11 11 10 11 11 9 8 7 5 5 5 5 8 10 16 21 18 15 15 16 17 15 12 12 10 9 9 8 9 10 8 7 8 8 9 9 9 10 11 12 12 14 15 15 16 17 15 17 19 21 23 23 23 22 22 23 23 26 27 28 31 31 32 31 28 36 43 37 37 40 39 37 40 46 50 51 52 52 53 54 53 54 55
16 7 7 9 9 10 9 9 10 9 8 8 6 6 5 3 6 11 12 18 21 16 15 17 16 14 11 9 9 8 8 8 8 10 9 8 8 9 9 10 10 11 13 13 13 14 15 14 14 15 15 16 20 22 24 24 22 22 22 23 24 26 28 29 29 31 34 38 36 29 33 45 43 37 41 42 38 42 50 53 54 55 55 56 56 56 56 57
20 14 13 13 11 11 9 9 8 7 7 7 5 6 4 3 8 14 17 19 17 14 15 15 13 10 8 8 8 8 8 8 9 9 9 9 9 9 10 11 12 13 13 13 14 15 14 13 14 15 17 20 22 24 25 23 22 22 23 24 25 27 27 26 29 32 39 44 39 31 34 45 45 36 39 45 41 43 51 55 56 56 57 58 57 58 58 59
27 27 26 25 23 21 18 16 11 8 8 7 6 6 3 6 10 15 21 19 13 15 14 10 10 9 7 8 8 9 9 9 10 10 9 10 10 11 12 12 14 14 13 14 15 14 14 15 16 17 19 22 23 25 24 22 23 23 24 26 26 27 26 30 36 35 42 48 39 33 35 42 49 41 36 43 45 45 49 53 56 57 58 59 59 60 61 61
32 34 34 33 33 32 29 25 16 9 8 6 7 5 3 8 10 13 20 16 11 15 11 8 9 8 7 9 9 10 9 9 10 10 10 11 11 12 13 13 15 14 14 15 15 15 16 16 18 20 21 23 24 25 23 22 24 24 27 28 26 27 27 34 41 37 46 56 41 34 40 43 50 44 36 42 46 48 50 50 54 58 60 61 62 64 64 63
33 35 36 34 35 36 34 29 20 9 6 5 6 4 3 9 11 11 14 12 10 12 10 8 9 8 9 11 11 10 9 10 12 11 11 12 12 13 14 15 17 17 18 18 17 18 17 18 22 23 22 24 25 24 22 23 26 27 29 28 31 39 38 42 52 47 50 53 38 34 41 42 45 45 42 46 48 51 56 55 56 59 61 63 65 65 65 63
27 29 33 35 36 37 34 32 24 11 6 5 5 5 5 9 13 12 11 11 10 11 10 9 9 10 11 11 10 11 10 11 13 13 14 14 15 17 18 19 20 21 22 21 22 22 19 21 26 25 23 25 25 23 23 25 27 28 29 29 34 45 49 58 67 56 46 43 34 35 39 39 46 53 54 53 54 57 61 61 62 63 64 66 66 66 66 65
21 21 28 35 39 39 35 32 25 12 7 7 5 5 6 9 12 12 11 11 10 10 10 9 10 12 11 10 12 13 13 13 14 15 16 16 18 20 21 22 23 23 24 23 25 26 25 25 26 25 24 25 24 24 26 27 28 29 30 31 33 35 40 52 59 51 46 45 39 37 41 41 49 61 63 59 60 62 64 65 66 66 67 67 67 67 69 72
21 20 25 33 38 38 34 32 25 13 7 8 6 6 8 11 13 12 11 11 10 9 9 9 11 12 11 12 14 15 16 16 16 17 18 18 20 23 24 24 24 24 25 26 26 29 30 28 25 25 24 24 24 25 27 28 29 31 32 32 35 34 34 40 46 44 46 54 52 45 48 50 53 65 67 62 63 64 66 68 68 68 69 69 70 73 76 81
20 20 27 33 35 35 32 30 24 12 7 7 6 8 11 13 14 12 12 11 10 9 9 10 12 13 13 15 16 17 18 18 18 19 19 20 22 25 26 25 25 25 26 28 28 32 34 29 24 25 24 24 26 27 30 30 31 34 34 34 36 37 37 40 42 41 45 57 55 45 54 63 63 70 71 65 66 67 68 71 69 70 73 73 76 79 82 86
17 19 27 33 32 31 28 24 17 9 7 7 7 10 13 14 12 12 11 11 10 11 11 13 15 16 16 17 18 19 20 20 21 21 21 22 24 27 28 26 26 26 27 29 29 32 35 31 25 25 25 26 27 29 31 32 32 35 35 37 38 39 42 43 45 51 60 69 60 43 52 67 67 70 72 70 71 71 71 72 71 73 77 78 82 84 86 89
15 17 24 27 27 25 20 15 10 7 7 7 8 10 11 12 11 10 10 10 12 14 15 16 18 19 19 20 21 21 22 22 22 22 23 24 25 27 28 26 27 28 27 29 29 30 34 34 30 28 27 28 28 31 32 32 34 36 37 40 40 41 45 44 46 54 64 76 75 56 49 56 60 65 71 73 73 72 72 74 76 80 82 83 85 87 89 86
12 15 19 21 20 16 11 9 7 8 8 8 8 9 9 9 9 10 12 14 16 17 18 19 20 21 21 22 23 22 22 22 22 24 25 25 26 27 28 28 28 28 28 29 31 31 33 38 35 29 28 29 28 31 33 34 35 37 39 42 42 43 46 43 43 48 55 72 82 71 58 58 62 67 72 74 72 73 77 80 84 86 86 87 87 87 86 77
11 15 17 16 14 10 8 8 8 8 7 7 7 8 9 10 12 14 16 17 18 19 21 22 22 22 23 23 24 23 23 23 23 25 26 26 27 28 29 29 28 29 30 30 31 31 33 38 37 30 28 29 30 33 35 35 37 40 43 44 43 44 45 45 46 44 48 64 79 82 76 67 66 73 76 76 78 82 86 87 89 89 89 88 87 85 80 72
14 15 14 13 10 8 7 7 7 6 5 6 8 10 12 15 16 18 19 19 21 21 22 23 23 23 23 23 24 24 23 23 24 26 26 26 27 28 29 30 30 30 30 29 29 31 34 39 39 34 30 29 30 32 34 35 39 43 45 44 45 45 44 52 58 50 45 54 66 76 78 70 70 78 81 82 86 88 89 90 90 89 88 86 84 82 78 73
13 12 11 10 8 7 6 5 5 6 7 10 13 15 16 18 19 20 21 21 22 22 23 23 23 23 24 25 26 26 24 23 23 24 25 25 27 29 29 29 30 28 27 27 28 30 34 39 41 37 32 31 31 33 34 37 39 41 44 44 46 48 47 52 60 55 51 55 57 63 73 75 77 81 83 87 89 89 90 90 88 87 86 83 80 78 77 77
9 9 8 7 5 5 5 6 8 10 13 15 16 18 19 20 21 22 22 23 23 23 23 24 24 24 25 25 25 24 22 21 21 21 22 24 25 27 27 27 28 27 26 28 30 32 35 40 43 40 33 29 29 33 37 40 42 44 47 47 48 53 53 52 56 56 57 58 55 60 73 79 78 81 87 91 90 89 90 87 85 84 79 75 74 74 77 81
7 7 6 4 5 7 8 10 13 14 16 17 19 20 21 21 22 22 23 23 23 23 23 24 24 23 22 21 21 21 21 21 22 21 22 23 24 26 26 27 28 28 28 29 32 35 37 40 45 47 47 43 41 42 40 42 46 47 47 48 52 57 59 59 59 59 61 61 58 64 76 82 83 87 92 93 91 90 89 84 81 76 68 68 74 76 79 85
5 5 6 6 8 11 11 13 16 16 18 20 21 22 22 22 22 22 23 23 23 22 22 21 21 19 19 20 21 22 23 24 25 24 25 25 26 27 28 30 31 30 29 31 34 37 38 39 43 50 57 60 59 54 47 48 52 49 45 50 56 60 61 62 62 63 64 65 66 70 79 88 94 95 94 93 92 88 80 71 66 65 63 65 72 76 82 89
6 7 9 11 12 14 14 16 18 18 19 20 21 22 22 22 22 21 22 22 21 19 19 19 19 19 21 22 22 24 25 26 27 26 27 28 29 30 32 33 32 31 32 33 35 39 41 41 42 47 49 51 53 50 48 54 58 55 54 54 55 57 57 58 63 67 69 73 75 77 83 92 96 96 94 90 80 67 57 49 46 51 57 66 79 90 91 83
10 11 12 13 14 16 17 19 20 21 20 20 21 23 22 22 22 21 20 19 18 18 19 20 22 23 24 23 23 24 24 26 27 27 28 30 30 31 33 33 33 33 35 36 37 41 44 42 42 44 42 41 45 46 47 54 59 59 60 58 57 59 57 59 67 71 74 80 82 84 91 95 92 88 82 69 53 43 40 40 46 59 74 87 93 88 73 56
12 13 14 15 16 18 19 20 20 21 21 20 21 22 22 20 19 18 17 18 19 21 22 23 25 25 25 25 25 25 24 24 24 25 27 28 29 30 31 32 33 35 37 39 39 41 44 44 43 45 42 39 43 46 47 53 57 59 63 63 64 65 62 64 73 76 79 86 89 92 96 90 78 68 57 46 41 41 44 54 71 85 90 86 73 58 47 45
14 15 16 17 18 19 20 20 20 21 20 19 19 19 18 17 16 18 19 20 23 23 24 25 26 26 26 26 26 26 27 27 26 26 27 27 29 31 32 33 36 38 39 40 40 41 45 45 45 49 47 41 43 47 48 52 56 60 66 69 70 70 69 73 80 83 87 92 94 94 88 71 57 50 45 43 45 48 57 73 84 82 68 53 46 45 45 46
16 16 18 19 19 19 20 20 20 20 18 17 17 17 17 18 19 20 21 23 24 24 24 23 23 24 24 24 25 25 26 28 29 29 28 28 30 33 35 36 38 40 41 41 40 42 47 47 47 51 50 46 47 50 51 55 57 61 69 73 72 73 77 83 88 91 93 91 87 80 66 52 47 46 45 48 54 62 72 75 64 50 42 40 45 52 53 54
16 17 18 19 18 18 19 19 19 18 16 16 17 18 19 21 22 23 24 24 24 23 22 22 21 22 22 23 23 23 23 24 26 27 29 30 31 34 37 38 39 41 41 41 42 44 47 48 47 52 56 52 51 55 57 58 58 60 67 71 71 75 84 91 94 93 86 78 69 59 52 49 49 48 48 56 68 73 66 53 41 38 42 50 63 74 79 82
17 17 17 18 17 17 19 19 17 15 16 18 19 21 22 23 23 24 24 23 23 22 22 21 21 21 22 22 22 22 22 22 23 25 26 28 29 32 36 39 41 42 42 43 46 46 48 50 49 55 63 58 55 62 63 58 61 67 69 71 75 83 94 98 95 86 73 63 56 52 52 54 53 53 57 63 68 64 52 48 50 50 52 64 81 94 96 89
Wind_Speed
13 13 13 13 12 11 10 9 9 8 8 7 7 7 6 6 5 5 5 5 5 4 4 5 5 5 4 3 2 1 1 1 1 1 1 1 1 2 2 3 3 3 3 3 3 3 4 4 4 4 5 6 7 7 6 7 7 7 9 11 11 11 11 13 13 14 14 15 16 16 14 14 14 14 14 14 14 14 15 14 16 16 14 13 12 12 12 12
14 13 12 11 10 10 9 8 8 7 7 6 6 5 5 4 4 3 3 4 4 4 3 4 4 4 4 3 2 1 1 1 1 1 2 2 2 2 2 2 2 2 2 2 2 3 3 4 4 5 6 8 9 8 8 8 7 7 9 10 10 10 10 11 13 14 16 16 16 14 13 13 13 13 14 14 14 14 14 14 16 15 13 13 12 12 12 13
14 13 12 11 10 8 7 7 6 6 6 5 5 4 4 3 2 2 1 2 3 3 3 3 3 3 3 2 2 1 1 2 1 1 2 3 3 3 3 3 2 2 2 2 3 3 4 5 5 6 7 9 9 9 9 9 7 7 9 10 9 9 10 11 13 14 15 15 14 12 12 12 12 13 13 14 15 14 13 13 14 13 13 14 13 13 13 13
14 13 11 10 9 8 6 6 5 5 5 5 4 4 3 2 1 1 1 1 2 2 3 3 3 3 2 2 2 1 1 2 1 2 2 2 2 3 3 3 2 2 2 3 4 5 5 6 6 7 7 8 8 8 9 7 6 7 8 9 9 8 9 11 13 13 12 12 11 11 12 11 11 12 12 14 15 13 12 12 12 12 13 15 15 14 14 14
14 13 11 9 8 7 6 5 5 4 4 4 3 3 2 1 0 1 1 2 2 2 3 3 3 3 2 1 1 1 1 1 2 3 2 1 2 2 2 2 2 2 2 3 4 5 6 6 6 6 6 7 7 8 8 6 5 6 7 8 8 7 8 10 11 11 10 10 10 10 11 11 11 11 11 14 14 11 10 11 12 13 14 16 16 17 16 15
11 11 11 9 8 7 5 4 3 4 3 3 2 2 1 0 1 2 2 3 3 3 3 3 3 2 2 2 2 2 2 2 2 3 2 2 2 2 2 1 2 2 2 3 4 5 5 5 5 6 6 6 7 7 6 6 6 7 7 7 7 8 9 10 11 11 10 9 9 10 11 12 12 12 13 14 11 9 11 13 14 15 15 17 19 19 18 17
8 8 8 8 7 7 5 4 2 3 3 3 3 2 1 1 2 2 3 3 4 4 4 4 3 2 3 3 3 3 3 3 3 3 3 3 3 3 2 2 2 2 3 3 4 5 5 5 5 5 6 6 6 6 6 6 7 7 6 7 8 9 10 10 10 10 10 10 10 11 11 13 14 14 15 13 9 9 12 14 15 16 17 19 20 20 20 19
4 5 5 5 5 5 5 4 3 2 2 3 3 3 3 3 3 3 4 4 4 4 3 3 3 3 2 2 3 3 3 3 3 3 2 3 3 3 2 3 3 3 4 4 4 5 5 5 4 4 5 5 5 6 6 7 7 6 7 8 9 10 10 11 10 10 11 11 11 13 13 14 16 16 14 11 10 11 12 14 16 18 19 20 21 21 21 21
1 1 2 3 4 4 4 4 4 4 3 3 3 4 4 4 4 5 5 5 4 4 3 4 4 3 2 1 2 3 3 3 3 3 2 2 3 3 3 4 4 4 5 5 4 4 4 4 4 4 5 5 5 6 7 8 7 7 9 10 10 10 12 11 10 11 11 11 13 15 14 15 17 15 12 13 14 12 12 15 17 18 20 21 21 22 23 22
3 3 3 3 3 4 4 4 4 4 4 3 3 4 4 5 6 6 7 7 6 5 5 5 4 4 3 2 2 2 2 3 3 3 3 3 4 4 4 4 5 5 4 4 4 4 4 4 4 5 5 5 6 7 9 8 8 10 11 11 12 12 12 12 11 11 11 13 16 17 15 16 17 14 13 16 15 13 15 17 18 19 20 20 21 22 23 23
5 5 5 5 5 5 4 5 4 4 5 5 5 4 4 5 6 7 8 8 8 7 7 6 5 5 4 3 3 2 2 3 3 3 2 3 3 3 3 3 4 4 4 4 4 4 5 5 5 6 5 6 7 9 9 8 10 13 13 14 15 13 12 12 12 12 13 15 18 19 17 16 16 14 16 17 15 15 18 19 20 21 20 20 19 20 23 23
5 5 5 5 6 5 5 5 5 5 6 6 6 6 5 5 6 8 8 9 9 9 9 7 6 6 5 4 4 3 3 3 2 3 2 2 3 2 3 3 3 4 5 5 5 5 6 7 7 8 8 8 9 10 10 10 13 14 15 16 15 14 13 12 12 14 15 17 21 21 19 17 15 16 17 17 16 18 20 21 22 22 21 20 19 20 22 22
4 5 5 4 5 5 5 5 6 6 6 7 7 7 7 7 7 7 8 9 10 9 9 9 7 7 6 5 4 4 4 3 3 3 2 3 3 3 3 4 4 5 6 6 7 7 8 8 9 10 10 10 11 11 12 13 15 14 15 16 15 15 13 12 14 17 18 19 20 21 22 20 14 15 18 17 18 20 21 21 22 22 22 21 19 19 20 18
3 4 4 3 3 4 5 5 7 7 7 7 7 8 8 8 8 8 9 9 9 9 9 9 7 6 6 5 5 5 4 3 3 3 3 3 4 4 4 5 5 6 8 9 9 9 10 11 12 12 12 13 13 14 15 15 15 15 15 15 14 14 14 16 18 20 20 19 20 21 24 22 13 14 19 19 20 22 22 22 21 21 22 20 18 18 18 15
3 4 3 3 3 3 4 5 6 7 8 8 8 9 9 9 9 9 9 9 9 9 9 8 7 6 5 5 5 4 4 3 3 3 3 4 5 5 6 7 8 9 10 11 11 11 12 14 14 13 14 14 15 16 16 15 17 16 15 13 14 17 19 21 21 21 19 18 20 21 23 23 16 14 18 19 22 24 24 22 21 21 20 19 18 17 16 14
2 4 4 2 2 4 4 4 5 6 6 7 8 9 9 9 9 9 9 10 10 10 9 7 6 6 6 5 4 4 4 3 3 4 4 5 6 6 7 9 9 11 12 13 13 13 14 15 15 14 15 15 16 17 16 17 17 15 15 16 18 21 23 24 23 21 19 19 21 21 24 26 19 15 18 20 23 25 25 23 21 20 18 18 18 16 15 14
3 3 4 4 4 5 6 6 7 7 7 8 8 8 8 9 9 9 9 9 9 10 9 8 7 7 6 5 4 4 4 4 5 5 6 7 7 8 9 10 11 12 14 15 15 15 16 16 15 16 16 16 17 17 17 17 16 14 17 20 21 23 26 26 24 22 21 23 23 24 27 27 19 15 18 22 24 26 27 25 22 19 17 17 17 16 14 13
4 4 5 6 7 7 8 8 9 9 8 8 8 8 8 8 8 8 8 8 8 8 9 9 8 6 5 5 4 4 5 6 7 7 8 8 9 10 11 12 13 14 15 16 16 16 16 16 17 17 17 16 16 16 17 17 17 18 20 23 25 27 27 25 24 22 24 26 25 24 26 24 20 17 17 21 26 28 28 26 23 19 17 17 17 15 14 13
4 5 6 7 8 9 9 9 10 10 9 7 6 7 7 6 7 7 6 7 7 7 8 7 7 6 5 6 6 7 7 7 8 9 9 10 10 12 13 13 14 15 16 16 17 16 17 17 18 18 17 16 15 16 17 18 19 21 22 25 28 30 28 25 23 23 24 26 25 22 23 24 23 19 17 22 26 28 30 27 22 18 17 17 16 15 14 15
4 6 7 7 8 8 9 9 10 9 7 6 6 6 6 5 5 5 5 6 7 7 7 7 7 7 7 8 8 8 8 8 9 10 10 11 12 13 14 14 15 16 16 17 17 17 18 19 19 18 17 15 15 16 17 19 20 22 25 27 28 29 29 26 24 24 22 23 23 20 23 25 24 22 20 23 27 29 29 24 18 16 16 16 16 15 15 16
5 5 5 6 6 7 8 8 9 9 7 6 6 6 5 5 4 4 5 6 6 7 7 6 7 7 7 7 8 8 9 9 10 10 12 12 12 13 14 15 15 15 16 17 18 18 20 21 19 17 17 17 18 18 18 19 21 23 25 27 27 27 29 26 21 20 19 21 22 21 25 26 23 23 24 25 25 23 18 13 13 14 14 15 16 16 17 17
5 4 4 4 5 5 7 8 9 10 7 6 6 5 5 5 5 5 6 6 7 7 7 7 7 7 7 7 8 9 9 9 10 10 11 11 12 13 13 14 15 15 17 19 20 20 20 19 17 17 18 19 18 17 17 19 20 22 23 25 26 25 24 21 18 18 18 21 24 24 26 25 23 24 24 19 16 12 7 6 9 11 14 15 16 17 17 18
6 5 4 4 4 5 6 7 8 7 7 6 5 5 5 6 6 7 7 7 7 6 5 5 6 6 6 6 7 8 8 9 9 9 9 11 12 13 13 14 16 16 18 20 19 19 19 18 18 18 17 17 17 17 18 20 20 21 22 24 24 21 18 19 19 19 19 22 24 25 26 25 21 18 13 8 8 6 5 7 9 11 14 16 17 17 18 18
8 7 6 5 5 5 6 6 6 6 6 6 5 6 6 7 8 8 8 8 5 4 4 4 4 4 3 4 6 7 8 9 8 8 11 13 13 14 15 16 17 18 18 18 18 19 19 18 17 17 16 17 18 17 18 20 21 21 20 20 20 17 16 19 21 21 21 22 21 22 22 17 10 6 4 4 5 3 8 11 13 16 16 17 18 18 18 18
9 7 6 6 5 5 6 6 6 6 6 6 6 7 8 9 9 9 10 6 3 5 5 5 5 3 3 6 7 8 9 9 9 12 15 15 14 15 16 18 18 18 18 20 20 19 17 15 16 17 17 18 17 16 17 20 21 20 17 16 16 17 17 18 20 21 23 19 15 16 13 4 2 2 3 4 6 8 13 15 17 18 18 19 19 20 20 20
8 7 6 5 4 5 5 5 6 6 6 6 7 8 9 11 10 10 10 4 4 7 7 6 7 5 6 9 9 10 10 10 13 16 16 16 16 16 17 17 18 18 19 20 19 17 16 15 16 16 16 16 16 17 17 17 19 19 15 14 16 18 19 19 19 19 18 16 17 18 12 6 6 6 5 9 11 14 18 18 20 20 20 21 21 21 21 21
7 6 5 4 4 5 5 6 6 5 6 6 7 9 10 12 11 9 7 2 3 8 7 7 8 7 9 11 12 14 12 12 15 15 14 16 16 17 17 17 17 18 18 18 18 16 15 14 14 15 16 16 17 17 15 15 17 16 15 16 19 19 18 18 18 19 21 22 23 20 13 12 11 7 10 16 16 18 22 22 23 23 23 24 24 23 23 22
7 7 6 5 6 6 6 7 6 7 7 7 9 10 12 14 11 8 4 2 4 9 8 8 8 9 13 14 15 15 14 13 12 11 14 15 16 17 17 17 17 16 15 17 16 14 14 15 15 17 17 16 15 14 14 15 14 14 17 20 20 18 18 20 21 23 22 19 18 14 8 9 7 5 15 21 21 22 25 24 24 25 25 25 25 24 24 23
7 7 7 7 7 8 8 8 8 9 9 9 11 11 14 14 10 7 2 2 6 10 8 9 10 12 15 15 15 13 11 11 9 11 15 15 16 17 16 17 17 15 14 13 12 14 17 17 16 15 14 12 12 12 14 14 14 16 20 20 19 19 22 24 23 21 15 10 12 12 7 6 3 5 18 24 24 26 26 25 25 25 25 25 25 24 23 22
5 6 7 7 8 9 10 10 11 11 10 12 12 12 14 12 8 5 2 2 9 9 8 11 14 16 16 14 12 10 9 10 11 13 15 16 17 16 17 17 14 13 12 10 13 17 17 15 14 12 10 11 11 12 13 15 17 20 20 19 20 22 23 21 17 13 7 5 7 6 6 8 2 4 17 24 23 27 28 27 27 26 25 25 24 22 21 19
3 4 6 7 8 10 12 13 14 13 12 12 12 12 12 8 7 5 2 6 11 8 11 14 15 17 16 13 10 9 10 12 13 14 14 16 16 16 16 14 14 15 12 13 16 16 14 15 12 8 9 12 12 12 16 19 20 17 17 19 20 17 13 11 9 5 2 3 3 2 4 9 4 3 14 19 18 22 25 27 27 26 24 23 21 19 17 16
3 4 5 6 8 10 12 14 15 15 13 12 11 11 9 4 5 5 3 9 10 10 15 17 17 17 14 12 11 11 13 13 14 16 16 16 16 16 15 14 18 18 15 19 20 17 16 15 8 6 12 14 13 17 21 20 16 14 17 19 14 7 5 4 3 2 3 4 2 2 3 6 6 5 10 15 16 19 22 23 23 23 22 21 19 16 16 16
5 6 7 8 8 9 12 14 16 15 13 12 11 10 8 3 3 6 8 10 11 13 17 17 17 15 12 11 12 15 16 14 15 17 17 17 17 15 14 16 20 18 15 19 21 21 20 13 7 11 15 14 17 23 22 16 14 16 18 14 6 2 3 3 4 3 4 4 3 3 3 4 4 5 8 13 16 19 21 20 20 20 19 18 16 15 16 18
6 7 8 9 9 9 11 13 16 15 12 12 12 10 7 4 4 7 9 11 13 14 16 16 15 12 12 13 14 17 18 17 17 17 17 17 14 12 13 16 18 15 16 18 19 21 16 8 9 15 17 17 20 20 16 15 17 16 14 10 8 6 3 4 4 2 4 6 7 9 6 4 4 7 11 14 16 18 18 18 17 17 16 16 15 16 17 21
7 8 9 9 9 9 10 13 15 14 12 12 11 10 7 5 5 8 11 13 14 14 15 15 13 11 12 14 16 18 18 17 18 18 18 15 13 12 15 18 16 14 16 18 20 18 10 9 14 18 19 18 17 13 14 17 15 11 12 13 12 10 8 9 9 9 9 8 7 6 2 2 6 12 14 15 16 18 17 16 17 16 15 15 15 17 21 26
7 8 9 9 9 10 11 13 14 14 12 11 10 9 8 7 7 10 12 14 15 15 15 14 12 12 14 15 16 17 17 17 18 18 17 14 12 13 16 18 14 14 19 21 21 15 10 14 19 19 18 15 14 15 17 18 13 12 16 15 12 12 12 12 11 11 8 5 4 5 6 7 9 12 16 17 17 18 16 16 16 15 15 16 18 22 26 30
8 8 8 9 10 10 11 13 13 13 12 10 9 9 9 8 9 11 13 13 14 15 16 15 13 13 16 18 17 18 17 17 18 17 15 13 12 14 18 17 14 18 23 23 21 16 17 23 23 18 15 16 20 22 20 18 15 14 15 14 12 11 10 8 6 5 3 2 4 6 9 14 13 10 16 21 18 16 15 14 15 16 17 20 23 27 30 33
8 8 8 9 10 11 12 12 12 11 10 10 9 9 9 9 10 11 12 13 14 14 14 15 14 14 17 18 18 19 18 18 18 16 13 13 14 16 17 14 15 22 24 23 22 20 21 23 20 16 16 21 25 24 21 18 17 17 16 15 12 9 7 6 3 3 2 2 3 4 6 13 14 11 17 22 18 15 14 14 16 19 22 25 29 31 34 37
8 8 8 9 10 11 11 11 10 10 9 9 9 9 9 9 10 11 12 12 13 13 13 14 14 15 15 17 19 19 20 20 18 15 14 14 16 17 15 14 19 23 22 23 23 22 21 16 14 18 23 25 25 21 20 21 21 20 16 13 11 10 10 9 7 5 4 2 2 3 1 5 9 11 16 17 14 14 15 17 20 24 27 30 34 36 38 42
7 7 8 9 10 10 11 11 10 9 8 9 9 9 9 9 10 11 11 12 12 12 13 14 14 15 15 17 19 20 21 19 15 15 16 16 18 17 14 17 22 22 21 24 24 25 22 13 16 25 27 25 23 21 23 24 21 16 13 12 12 11 11 12 12 12 10 4 1 2 3 3 8 10 13 13 13 14 17 22 26 30 32 35 38 40 43 47
6 7 8 9 9 10 11 10 9 9 9 10 10 10 10 10 11 11 12 12 13 13 13 14 15 16 16 18 19 20 21 19 15 17 18 18 19 17 16 21 23 22 23 26 25 24 21 16 22 29 28 25 24 22 21 18 13 10 10 10 9 11 12 9 8 10 11 8 4 3 4 4 9 11 13 13 14 17 22 27 31 35 38 40 42 44 47 49
7 7 8 9 10 10 10 9 9 10 11 11 11 11 11 11 11 12 12 13 13 13 14 14 15 16 16 19 19 20 22 19 16 18 19 18 19 19 20 22 22 24 26 26 25 24 22 20 23 26 26 26 22 17 12 9 8 8 7 7 10 14 15 10 8 9 10 10 10 7 4 5 12 15 16 15 17 22 28 32 36 39 42 44 46 48 49 50
7 7 8 9 9 9 9 9 10 11 11 12 12 12 11 11 12 13 13 14 14 14 14 15 16 16 17 19 19 20 22 19 17 20 19 18 20 20 21 22 23 26 27 26 25 23 20 17 19 25 28 24 17 11 6 6 10 11 11 15 19 20 17 15 16 17 14 12 11 8 3 6 14 17 17 18 22 28 32 36 39 42 45 47 49 49 50 51
7 7 8 8 9 9 8 9 11 12 12 12 12 12 12 12 13 13 14 15 15 15 15 16 17 17 18 19 19 20 20 18 19 21 19 19 21 20 20 23 25 25 26 25 23 20 17 15 17 21 21 16 12 8 9 13 17 18 19 22 24 22 19 18 18 17 12 8 8 6 3 4 10 14 17 21 27 32 36 39 42 45 47 49 49 50 51 53
7 7 8 8 9 9 8 11 13 12 12 12 12 14 14 14 14 14 15 15 16 16 16 17 17 18 18 19 19 19 19 19 20 20 19 21 22 21 22 24 25 26 24 21 19 19 18 17 17 14 8 8 9 10 16 23 24 23 21 21 22 21 18 16 14 11 7 6 7 8 6 7 10 15 21 26 31 35 38 41 44 45 48 50 50 52 53 55
7 8 8 8 9 10 11 13 14 13 13 13 14 16 16 15 14 14 15 16 16 17 17 17 18 19 20 21 21 20 20 22 21 20 22 23 23 24 25 25 26 25 21 19 20 20 19 19 19 15 13 15 17 18 21 24 26 25 21 18 18 18 16 14 12 10 10 11 13 12 11 13 15 19 25 30 34 37 40 43 45 47 50 51 51 53 55 59
8 9 9 9 9 11 13 14 15 15 14 14 15 17 17 16 15 14 15 16 17 17 17 17 20 21 22 24 24 22 23 23 22 22 24 24 25 25 25 25 24 22 20 21 22 20 21 22 19 16 17 19 21 23 22 20 20 21 21 21 19 16 15 13 11 11 11 11 11 10 11 15 20 24 30 34 37 41 43 46 49 49 50 51 53 56 59 61
10 11 11 11 11 13 14 15 16 16 15 15 16 16 16 16 15 14 15 16 17 19 19 19 22 23 24 25 24 24 25 25 24 25 25 26 26 24 24 24 21 20 21 22 21 20 21 21 18 17 19 21 21 20 17 15 17 20 23 23 19 15 13 10 9 11 12 10 11 13 15 20 26 30 34 37 40 44 46 48 47 47 50 53 56 57 57 57
11 12 13 13 13 15 15 16 16 16 15 15 15 16 16 16 16 15 16 18 19 20 21 21 22 23 23 23 24 24 26 26 26 27 27 27 26 24 24 22 19 20 22 20 19 20 18 19 19 19 22 23 20 16 16 18 20 23 23 20 17 14 10 8 9 10 11 11 13 17 22 27 31 33 36 39 42 45 45 46 47 49 53 54 53 53 53 52
12 13 14 14 14 15 16 15 15 15 15 15 15 16 16 17 17 17 18 20 21 22 23 23 22 22 22 22 23 24 25 25 26 27 27 26 25 24 23 21 20 20 19 18 19 19 18 19 19 20 24 24 19 17 19 19 20 22 19 14 13 11 7 7 9 10 12 15 18 22 28 32 33 34 38 41 43 45 46 48 50 51 50 50 51 52 52 50
13 13 14 13 14 15 15 15 14 14 15 16 17 17 17 18 19 19 19 21 22 23 24 23 23 22 22 22 23 24 24 24 24 24 24 24 23 22 20 20 20 19 18 18 19 20 19 19 20 21 23 25 23 21 21 19 19 20 14 11 13 12 9 8 9 13 18 21 25 30 33 34 34 38 42 43 44 46 49 51 50 49 50 51 52 50 49 49
13 13 13 12 12 14 15 14 13 14 16 18 18 18 19 19 20 20 21 22 23 24 24 24 23 23 23 24 24 24 24 24 23 22 21 20 19 18 17 17 17 17 19 19 19 20 19 18 21 21 22 25 25 22 21 20 15 11 9 14 17 14 11 10 11 17 22 26 31 35 35 35 37 42 45 46 47 49 50 50 50 51 53 52 48 46 47 48
Wind_Direction
100 102 103 106 106 105 104 101 101 103 107 110 111 110 111 113 119 126 134 138 141 148 150 147 143 140 138 139 129 107 81 62 30 36 353 296 264 242 236 239 232 230 233 234 235 230 232 237 232 228 232 237 237 234 231 225 221 229 234 234 238 245 245 243 241 244 256 271 283 289 287 287 290 289 287 285 285 285 286 288 285 287 291 293 294 294 293 290
96 98 99 100 100 99 96 95 94 97 100 105 105 102 99 97 102 114 134 148 158 166 167 160 153 153 154 152 137 103 21 360 337 355 353 324 305 293 276 264 260 259 262 266 263 260 262 267 268 262 250 245 244 244 243 236 232 237 238 241 250 258 258 249 244 248 261 273 282 284 283 287 290 288 288 288 286 284 288 289 287 292 297 295 296 298 297 295
94 95 96 96 95 92 89 88 87 90 94 98 98 95 88 77 69 79 127 163 179 185 189 188 181 179 173 168 160 141 323 327 318 336 349 321 297 291 282 278 282 286 294 291 286 286 280 278 278 272 261 252 248 246 246 241 243 250 246 252 260 259 256 254 255 259 267 274 279 282 283 288 287 286 289 288 287 288 290 287 289 297 298 297 300 300 299 297
88 88 88 89 87 82 78 75 76 79 84 91 96 95 88 75 53 17 298 238 211 206 213 216 215 213 195 184 180 185 311 338 339 321 329 309 292 284 282 286 283 290 296 293 292 288 283 284 282 278 273 268 260 250 246 247 255 256 255 263 268 261 254 257 265 270 274 277 282 284 287 290 287 290 292 290 293 293 289 288 292 298 297 298 300 301 300 299
81 79 78 77 75 71 66 59 57 57 61 75 87 94 94 91 53 274 267 264 251 234 230 234 240 244 242 230 242 302 312 13 354 339 351 330 310 293 289 283 270 279 288 294 291 285 286 287 287 286 286 282 271 257 258 269 271 268 271 276 275 267 264 268 275 279 281 283 285 289 294 294 293 299 298 296 299 290 286 292 295 297 297 297 299 300 300 300
78 77 75 74 73 69 62 52 42 34 29 33 50 69 78 36 265 256 254 255 252 245 237 238 244 261 281 294 311 325 333 356 343 341 360 348 331 310 299 283 278 297 304 302 293 290 294 294 297 296 293 288 274 266 275 286 287 286 285 283 283 284 282 282 285 285 286 284 289 297 302 300 303 308 304 303 300 283 289 297 296 298 299 298 301 301 300 300
76 75 73 71 69 69 67 60 42 20 6 359 359 360 351 314 293 281 265 252 245 246 245 241 243 262 288 309 316 333 353 357 342 333 344 345 335 322 317 316 323 332 321 313 305 307 306 299 298 292 291 287 277 282 293 298 298 293 288 288 292 292 288 286 287 288 285 283 295 306 308 306 308 311 307 306 298 284 293 297 298 302 303 303 303 302 300 299
73 71 67 60 53 53 55 55 47 27 5 350 340 332 324 313 302 293 278 263 251 248 252 255 255 265 284 319 325 337 355 350 341 336 338 342 330 326 341 340 338 342 336 331 320 313 307 303 300 296 299 292 287 296 302 302 299 292 295 295 296 293 289 287 285 286 283 280 296 310 311 308 309 311 307 306 302 293 294 298 302 305 305 306 304 303 301 299
360 28 38 35 28 24 22 27 29 22 9 348 331 318 314 310 300 289 281 270 257 254 263 272 275 275 276 304 314 321 339 341 344 342 332 333 323 325 350 351 345 347 340 331 317 308 313 313 314 317 312 303 301 302 304 302 293 296 301 297 295 292 288 284 279 284 282 278 295 308 308 306 308 308 302 303 307 301 299 303 306 305 305 305 304 303 301 298
289 291 303 317 334 350 353 351 354 356 355 343 325 312 305 302 294 286 279 272 263 260 269 280 280 275 274 286 290 298 320 329 343 342 331 333 328 333 351 345 341 338 326 320 313 313 322 325 326 325 315 307 305 304 305 295 289 302 301 295 297 291 286 282 279 284 284 283 297 304 303 303 305 303 299 306 309 306 307 309 308 305 304 305 303 301 300 297
285 285 286 287 293 305 318 324 323 324 328 328 320 313 304 295 290 283 278 274 268 264 270 279 278 271 277 293 294 301 313 316 336 335 331 334 327 342 353 334 331 328 318 321 321 321 327 326 324 320 311 305 304 306 303 288 292 302 297 294 296 290 283 279 278 284 288 292 299 301 299 301 303 302 303 308 311 310 312 312 309 306 305 304 301 300 297 292
290 292 288 281 279 283 293 300 303 304 305 308 308 306 303 295 288 283 278 274 271 268 268 271 274 273 278 293 298 303 301 297 317 324 331 329 320 344 353 337 335 330 323 322 320 324 324 319 314 312 309 304 303 305 300 293 295 298 295 295 295 289 283 275 276 285 294 298 299 300 298 300 305 303 304 307 309 313 314 312 308 305 304 303 303 302 294 287
303 302 289 280 275 271 276 285 288 289 290 295 296 297 297 292 286 282 278 275 274 271 268 267 269 270 276 284 283 285 287 289 308 318 326 322 318 345 343 327 331 330 324 319 319 321 319 314 308 306 305 302 302 301 298 295 294 294 295 294 292 288 282 279 283 291 298 298 297 298 295 299 309 305 302 305 307 312 313 311 306 302 301 302 306 302 289 280
332 326 289 266 274 271 267 277 279 279 283 288 291 290 288 287 283 279 277 276 275 273 271 266 263 264 268 272 271 275 280 284 300 310 316 316 321 334 328 321 327 324 317 313 314 314 312 310 304 301 301 301 301 299 297 294 292 294 293 289 290 288 286 291 294 296 299 296 295 297 294 299 315 305 300 304 307 312 312 309 303 298 297 300 304 299 287 277
347 356 326 255 266 301 293 283 279 276 278 280 284 286 285 284 282 279 277 276 275 274 272 267 263 260 259 263 266 269 274 276 285 290 298 308 315 319 316 316 317 312 310 308 307 307 307 305 301 298 299 300 299 299 297 293 292 292 287 286 294 294 296 300 299 299 299 293 294 295 291 298 313 307 298 300 305 310 311 308 299 291 293 295 296 294 288 276
348 3 1 324 299 331 333 317 305 295 290 286 283 283 284 285 285 284 280 275 273 273 273 270 260 256 261 262 257 259 268 275 281 287 291 295 298 297 299 302 303 303 305 304 302 302 302 301 298 297 300 299 297 298 296 293 291 286 284 292 298 301 304 305 303 302 299 293 292 292 288 295 308 309 299 299 302 305 307 306 295 286 288 289 288 291 288 276
349 345 348 349 345 344 345 342 336 325 317 308 298 292 289 290 290 289 284 277 274 274 275 272 261 260 266 257 248 256 261 268 280 287 289 289 287 288 291 293 295 299 302 301 301 300 297 297 296 296 298 297 296 298 293 290 289 284 290 297 299 303 305 304 304 304 300 295 294 292 290 296 307 309 302 301 302 302 303 302 291 284 282 279 279 285 286 272
344 335 326 330 336 340 341 342 339 331 323 313 304 299 294 293 292 290 287 281 278 276 276 275 266 261 256 241 240 257 263 272 280 284 286 287 287 289 290 292 294 297 297 296 297 297 295 295 294 294 297 296 296 294 286 286 290 290 294 296 298 302 302 302 305 303 298 295 293 292 292 299 307 309 305 300 299 298 298 296 288 279 270 265 270 277 274 256
331 327 321 323 328 331 333 333 332 330 323 314 308 304 299 298 297 296 296 291 286 280 275 273 264 258 255 251 256 266 271 278 283 285 287 288 290 291 292 293 295 296 296 296 296 297 295 294 294 297 299 298 296 293 289 290 291 291 292 294 297 301 300 303 305 299 296 293 292 295 296 302 309 312 307 296 292 290 290 292 285 269 253 252 263 266 253 236
328 318 314 317 320 322 324 324 326 328 323 320 325 322 319 319 309 307 310 300 292 282 273 266 263 265 263 263 268 271 274 282 287 289 290 291 293 294 295 295 296 297 297 297 298 298 297 296 300 302 301 300 299 298 296 293 291 290 291 294 297 299 300 304 304 297 296 294 295 301 301 304 311 313 304 293 288 285 287 286 271 249 241 246 254 249 235 228
327 316 309 309 311 313 320 325 330 332 323 314 320 324 331 336 325 314 310 302 296 288 280 271 266 266 265 269 275 277 283 290 291 292 293 295 297 297 297 298 297 298 298 298 299 300 299 301 305 305 302 303 304 301 297 292 290 290 292 295 297 298 301 304 301 298 301 296 298 304 302 305 314 310 301 293 289 288 286 274 253 238 234 236 237 234 229 226
345 331 317 310 310 313 326 335 337 335 325 311 312 317 326 333 331 324 320 317 311 302 291 281 273 272 277 284 288 290 294 296 294 296 298 298 299 299 299 298 298 299 299 300 301 302 303 306 307 305 305 306 305 304 301 295 292 292 294 296 298 302 305 305 304 306 307 300 301 305 303 309 315 306 300 297 294 291 272 245 246 241 232 224 223 227 226 225
12 358 343 335 332 335 342 342 338 336 332 324 324 329 333 335 331 327 327 326 320 315 309 297 288 289 294 296 299 303 303 302 302 300 300 302 303 303 301 298 299 301 301 302 303 304 307 309 306 305 306 306 304 304 300 296 294 296 298 300 302 309 310 307 308 309 306 301 303 305 305 310 311 300 298 310 310 290 226 214 220 221 220 216 216 219 223 226
21 10 3 357 353 353 351 342 341 344 338 335 344 351 350 344 337 333 333 329 326 342 350 345 329 313 318 320 314 319 318 314 312 309 310 310 308 306 304 303 304 306 305 305 304 306 310 309 307 308 308 305 305 304 301 299 298 300 304 305 306 311 310 307 309 310 306 303 303 305 307 307 299 294 314 326 310 246 201 205 200 199 207 214 216 217 219 222
23 18 11 5 1 356 349 343 346 344 338 345 358 359 354 347 342 340 340 341 18 21 11 13 6 348 340 335 322 323 327 323 319 317 315 312 310 309 308 309 310 310 309 307 308 310 312 309 307 307 306 306 307 307 305 303 303 308 312 310 312 315 313 310 310 309 307 305 304 309 316 308 206 295 323 270 244 201 190 199 197 194 205 212 216 217 217 219
20 19 14 12 5 354 350 347 346 340 339 351 357 357 355 347 341 341 345 14 72 28 20 16 9 358 339 336 325 322 325 322 320 319 314 311 312 312 312 313 312 312 312 309 311 315 314 311 309 308 307 308 308 308 307 306 309 315 319 320 322 320 315 311 307 303 298 295 296 298 293 247 240 272 248 220 212 192 185 191 194 196 204 209 213 216 217 219
15 15 13 12 2 355 354 348 347 343 344 350 349 352 352 343 337 337 345 56 45 9 11 3 360 353 340 335 329 327 324 320 320 317 312 312 314 315 316 317 316 315 315 314 316 319 317 317 315 312 310 308 307 308 310 313 316 318 324 329 325 319 312 305 300 295 290 290 293 291 270 249 260 259 214 207 201 187 184 187 190 196 203 207 211 215 217 221
15 17 16 11 1 359 358 352 350 346 343 341 342 348 347 341 338 338 353 89 9 354 358 356 357 349 340 334 329 329 325 323 323 316 313 314 317 319 319 320 320 320 318 315 319 323 323 322 318 312 309 307 308 313 317 319 319 319 325 326 321 315 306 300 297 294 292 292 295 289 251 235 257 211 185 196 200 188 183 186 190 198 204 208 213 217 220 225
19 22 23 19 11 6 3 357 349 342 338 334 338 345 344 342 342 343 21 97 351 350 350 347 344 337 335 334 330 331 330 329 330 323 319 321 323 323 323 323 324 324 321 320 325 329 326 325 321 315 312 310 315 321 323 322 320 319 322 321 317 311 304 300 296 291 289 285 284 282 239 211 269 215 183 188 199 193 185 189 196 203 208 212 218 222 227 232
22 23 24 23 18 13 8 2 353 344 338 335 340 345 345 346 350 1 72 352 339 344 340 336 337 333 333 335 334 337 340 335 331 328 325 326 328 327 327 327 327 329 331 329 332 331 330 332 329 320 315 319 322 325 327 323 317 317 319 318 315 311 302 294 286 282 286 271 270 281 227 208 273 249 193 189 198 199 195 197 202 208 213 218 223 228 234 242
8 12 14 15 15 13 8 3 358 352 345 342 345 347 348 353 9 39 79 333 337 340 335 335 337 335 336 339 343 345 344 337 331 331 331 331 332 331 331 332 336 341 341 337 336 338 340 338 331 325 324 324 321 321 323 321 317 318 320 319 317 310 298 282 271 262 245 256 289 5 191 203 223 235 197 195 203 207 208 210 212 215 219 224 231 237 245 256
329 338 341 345 353 360 2 0 358 356 353 351 349 350 354 5 22 33 356 330 336 337 337 338 338 340 343 345 346 344 343 343 338 337 339 340 339 339 345 351 351 350 346 341 342 341 343 342 339 339 333 326 319 320 322 322 322 322 319 317 316 316 318 291 258 229 230 253 274 84 145 210 237 234 207 208 211 209 214 221 222 224 229 234 240 247 258 270
333 335 331 327 327 337 350 354 354 355 354 354 353 353 2 28 20 2 346 339 338 337 338 339 340 345 349 348 346 345 346 348 348 347 347 347 346 351 2 360 353 353 347 344 343 341 345 353 351 341 335 327 321 321 322 324 325 319 316 318 315 334 358 304 270 278 279 268 240 245 270 252 227 200 198 204 204 205 212 220 225 229 234 241 248 258 269 279
337 338 336 334 329 329 339 345 349 352 352 353 354 355 8 40 15 352 346 342 339 340 341 342 345 349 350 350 350 350 351 351 353 352 349 350 353 1 6 355 351 354 349 348 347 341 340 340 338 338 332 323 320 319 321 322 320 315 315 317 299 282 271 256 256 263 277 286 281 273 273 251 195 176 187 195 197 203 210 216 223 231 239 248 259 269 279 287
335 336 338 342 341 337 338 341 345 347 348 352 351 356 22 44 11 351 346 343 342 345 346 346 348 349 351 354 354 356 356 354 353 351 351 357 2 4 359 350 351 355 352 351 348 339 321 308 326 330 325 322 321 320 322 323 320 310 309 309 294 282 266 259 271 275 279 304 296 256 227 233 197 181 186 195 202 206 210 217 225 235 245 258 270 279 291 299
332 336 342 345 343 342 339 337 339 341 345 351 350 5 32 33 4 353 350 347 346 348 351 352 352 352 354 358 360 0 358 356 355 353 356 4 7 2 351 346 352 354 350 349 347 339 308 307 324 328 327 331 329 325 325 323 319 308 305 303 293 288 278 267 277 284 283 309 280 197 141 142 163 177 191 198 204 208 212 221 231 243 256 270 283 292 303 310
333 336 340 342 341 340 335 332 334 338 344 350 358 18 31 16 2 357 352 351 350 351 355 358 360 358 356 358 2 2 359 359 359 357 3 6 4 356 347 346 353 347 344 344 343 337 315 312 324 334 332 332 329 325 324 321 318 313 308 305 298 291 278 259 272 309 314 302 252 214 169 168 169 179 196 198 203 210 217 230 244 262 276 287 298 306 314 319
335 336 338 340 336 334 332 332 336 341 346 353 7 24 24 8 2 359 355 355 356 358 1 4 5 2 358 357 358 360 0 2 2 4 8 5 357 351 347 348 347 341 341 341 338 336 325 315 321 331 329 328 327 324 322 321 319 316 310 305 297 285 274 257 254 304 307 297 266 243 191 187 196 202 196 200 210 218 234 256 270 286 297 303 311 316 320 322
338 339 340 338 334 333 335 339 343 348 353 2 17 26 19 11 7 4 3 3 2 6 8 7 6 4 4 1 357 359 2 2 4 7 4 358 352 348 348 346 341 338 339 338 334 332 329 314 304 318 322 324 325 323 320 319 316 315 311 305 295 279 275 270 258 260 261 267 271 273 272 180 200 207 199 206 224 237 259 281 293 304 310 313 317 319 320 322
347 345 341 338 337 339 342 346 350 355 2 16 30 31 24 22 18 14 12 10 11 13 10 9 8 6 7 4 359 360 2 3 5 4 358 353 350 347 344 340 338 337 335 335 332 329 328 309 289 308 319 322 324 323 318 315 314 314 308 303 298 286 284 279 270 265 259 250 174 253 294 180 179 198 207 223 251 268 287 301 308 314 316 317 319 320 321 321
358 349 344 343 344 346 347 351 357 4 16 32 39 36 33 30 24 20 19 16 16 15 12 13 12 9 8 6 2 360 360 1 3 360 354 349 348 343 337 336 335 335 331 330 330 328 326 307 293 305 317 322 323 322 316 314 317 318 306 300 300 300 300 291 273 265 257 256 253 269 284 213 196 212 224 243 273 292 305 312 315 317 317 318 319 320 320 320
358 350 350 350 348 351 354 360 11 20 32 43 45 41 39 32 26 25 22 20 19 17 17 18 15 12 11 6 3 358 355 355 355 354 349 345 344 337 332 333 332 330 329 328 328 327 323 311 298 304 316 321 325 327 322 323 337 340 319 303 310 314 307 286 273 283 279 275 274 276 282 230 225 231 236 254 283 300 308 313 316 317 318 318 319 318 318 317
357 354 354 352 355 3 6 13 29 38 45 49 46 43 41 34 31 30 27 27 25 22 22 19 13 12 8 4 1 355 352 350 347 347 345 340 338 333 329 330 328 328 329 327 326 326 325 315 304 309 317 322 330 340 339 337 338 329 308 300 307 311 305 288 284 290 287 276 269 269 268 235 237 244 255 274 294 304 310 314 316 317 317 317 316 315 314 314
358 360 360 2 14 20 21 35 46 49 52 52 47 45 43 39 37 36 33 31 28 24 20 15 10 8 3 1 358 352 349 347 341 340 340 336 333 330 328 328 327 327 328 326 324 324 323 316 312 316 323 330 341 349 334 325 322 314 306 308 311 310 306 298 291 287 280 265 253 249 254 255 257 268 282 295 304 310 314 316 317 316 315 313 312 312 312 313
8 13 16 26 35 34 41 55 56 55 57 56 51 48 45 43 41 37 34 30 24 20 15 9 6 3 358 355 352 349 346 343 338 336 337 335 332 330 329 329 327 327 328 326 323 324 321 317 317 315 308 309 313 315 318 316 313 311 311 312 311 309 309 306 295 280 266 262 263 259 269 291 293 294 299 306 312 315 316 316 315 313 311 310 311 311 311 312
29 34 38 50 51 46 55 62 59 58 59 57 54 50 45 41 39 34 29 26 21 16 12 7 2 358 353 348 348 348 346 343 340 336 336 335 333 332 330 329 328 328 330 329 327 327 323 321 321 311 294 295 301 310 319 315 309 311 313 310 304 304 308 310 300 281 271 282 284 271 266 284 299 307 311 313 315 316 316 315 313 311 310 310 310 311 311 312
48 53 56 63 61 56 60 63 61 58 56 54 54 50 43 38 35 30 26 23 19 14 11 6 359 353 350 348 349 350 348 345 341 338 337 335 334 333 330 329 329 330 333 332 330 329 324 322 324 319 313 315 317 321 324 317 311 313 313 310 308 307 307 305 293 277 277 287 286 272 276 293 304 311 315 316 317 318 318 316 314 312 311 311 311 311 312 311
60 65 65 67 68 66 64 63 60 57 53 52 52 46 40 36 32 29 26 21 16 12 8 3 357 353 350 349 350 348 346 345 342 341 338 335 335 334 332 331 331 332 335 333 331 330 325 323 326 324 324 328 329 328 325 318 316 315 311 310 313 313 304 291 271 268 274 279 282 289 303 313 315 318 320 321 322 321 318 315 313 312 311 310 310 310 311 310
66 70 69 68 69 68 65 61 59 56 52 50 49 44 38 34 32 30 26 20 14 11 7 2 359 356 353 351 350 348 346 343 340 339 338 335 335 334 333 333 333 333 335 334 333 332 328 326 329 325 323 329 337 335 326 319 316 312 308 309 316 318 306 275 262 269 276 284 295 304 313 320 322 323 324 323 320 317 314 312 310 310 309 309 310 311 311 311
66 69 68 67 68 67 64 61 58 54 51 49 48 45 38 35 32 28 22 18 14 10 7 4 2 0 356 353 351 348 346 341 337 336 335 334 335 334 332 332 332 333 336 337 335 334 330 329 331 326 321 329 341 335 324 321 314 308 305 308 316 316 303 282 281 288 296 303 310 315 319 322 324 325 325 322 318 315 312 310 310 310 311 312 313 314 313 314
62 64 66 65 67 67 64 60 57 54 52 50 47 43 38 34 30 24 19 17 14 10 7 4 3 3 359 355 352 349 347 343 339 336 334 332 333 333 330 329 331 333 336 337 336 336 335 333 334 329 322 327 338 333 327 326 313 301 299 310 318 315 304 299 305 314 318 321 324 325 325 325 326 326 324 320 316 313 311 311 313 315 316 316 317 315 315 316
62 63 65 62 64 66 64 60 59 57 53 50 45 41 37 32 28 23 19 16 13 10 7 4 3 2 360 357 355 353 350 347 343 340 339 336 334 333 331 329 330 331 335 338 337 338 338 334 336 334 321 324 335 333 328 327 313 296 306 318 319 319 311 300 303 316 324 329 330 329 328 327 326 324 321 317 314 313 314 317 318 318 317 317 316 315 314 315